This is the latest recevied weather packets stored in our database for station/object W4WYD-2. If no packets are shown the sender has not sent any weather packets the latest 10 day(s).
| Time | Temp. | Humidity | Pressure | Rain* | Wind** | Luminosity | Snow |
|---|---|---|---|---|---|---|---|
| 1787675354 | 28.89° C | 61% | 1019.5 hPa | 0 mm | - | 423 W/m² | - |
| 1787675054 | 28.33° C | 59% | 1019.6 hPa | 0 mm | - | 121 W/m² | - |
| 1787674749 | 28.33° C | 57% | 1019.5 hPa | 0 mm | - | 601 W/m² | - |
| 1787674444 | 28.89° C | 58% | 1019.6 hPa | 0 mm | - | 700 W/m² | - |
| 1787674139 | 28.33° C | 64% | 1019.3 hPa | 0 mm | - | 103 W/m² | - |
| 1787673834 | 28.33° C | 62% | 1019.6 hPa | 0 mm | - | 103 W/m² | - |
| 1787673529 | 27.78° C | 64% | 1019.4 hPa | 0 mm | - | 661 W/m² | - |
| 1787673223 | 27.22° C | 62% | 1019.4 hPa | 0 mm | - | 591 W/m² | - |
| 1787672922 | 26.67° C | 67% | 1019.8 hPa | 0 mm | - | 589 W/m² | - |
| 1787672619 | 26.67° C | 64% | 1019.5 hPa | 0 mm | - | 613 W/m² | - |
| 1787672317 | 26.67° C | 64% | 1019.5 hPa | 0 mm | - | 584 W/m² | - |
| 1787672013 | 26.11° C | 68% | 1019.6 hPa | 0 mm | - | 557 W/m² | - |
| 1787671708 | 26.11° C | 68% | 1019.7 hPa | 0 mm | - | 103 W/m² | - |
| 1787671407 | 25.56° C | 68% | 1019.7 hPa | 0 mm | - | 99 W/m² | - |
| 1787671103 | 25.56° C | 69% | 1019.8 hPa | 0 mm | - | 96 W/m² | - |
| 1787670799 | 25.56° C | 73% | 1019.7 hPa | 0 mm | - | 90 W/m² | - |
| 1787670498 | 25.56° C | 71% | 1019.6 hPa | 0 mm | - | 87 W/m² | - |
| 1787670193 | 25.56° C | 70% | 1019.7 hPa | 0 mm | - | 81 W/m² | - |
| 1787669892 | 25.56° C | 68% | 1019.8 hPa | 0 mm | - | 233 W/m² | - |
| 1787669588 | 25° C | 72% | 1019.5 hPa | 0 mm | - | 76 W/m² | - |
| 1787669283 | 25° C | 73% | 1019.7 hPa | 0 mm | - | 63 W/m² | - |
| 1787668978 | 25° C | 76% | 1019.5 hPa | 0 mm | - | 58 W/m² | - |
| 1787668675 | 24.44° C | 77% | 1019.8 hPa | 0 mm | - | 55 W/m² | - |
| 1787668371 | 24.44° C | 77% | 1019.7 hPa | 0 mm | - | 52 W/m² | - |
| 1787668069 | 24.44° C | 78% | 1019.5 hPa | 0 mm | - | 54 W/m² | - |
* Rain latest hour (hover to see other rain measurements)
** Current wind speed in m/s (hover to see current wind gust speed)